Regional Weather Roundup
Issued by NWS Glasgow, MT

Home | Current Version | Previous Version | Text Only | Print | Product List | Glossary On
Versions: 1 2 3 4 5 6 7 8 9 10 11 12 13 14 15 16 17 18 19 20 21 22 23 24 25 26 27 28 29 30 31 32 33 34 35 36 37 38 39 40 41 42 43 44 45 46 47 48 49 50
000
ASUS45 KGGW 141515
RWRGGW
HOURLY REGIONAL WEATHER ROUNDUP FOR NORTHEAST MONTANA
NATIONAL WEATHER SERVICE GLASGOW MONTANA
800 AM MST THU DEC 14 2017

NOTE: "FAIR" INDICATES FEW OR NO CLOUDS BELOW 12,000 FEET WITH NO
SIGNIFICANT WEATHER AND/OR OBSTRUCTIONS TO VISISBILITY.

NORTHEAST MONTANA


CITY           SKY/WX    TMP DP  RH WIND       PRES   REMARKS
GLASGOW        CLOUDY    32  26  78 NW12      30.27R
PLENTYWOOD       N/A     31  27  85 NW13G23     N/A
WOLF POINT     CLOUDY    36  28  73 NW9       30.26S
JORDAN           N/A     32  24  72 NW14      30.28R
WINNETT          N/A     33  25  72 W17G25      N/A
SIDNEY         MOCLDY    32  28  85 NW12      30.21R
GLENDIVE       CLOUDY    32  27  81 NW21      30.22R
MALTA            N/A     28  25  88 W10         N/A

FORT PECK REPORTS


CITY           SKY/WX    TMP DP  RH WIND       PRES   REMARKS
FORT PECK        N/A     34  27  75 NW17        N/A

SOUTHEAST MONTANA


CITY           SKY/WX    TMP DP  RH WIND       PRES   REMARKS
BILLINGS       PTCLDY    29  20  69 SW3       30.32S
MILES CITY     CLOUDY    34  24  67 NW9       30.28R
BAKER          CLOUDY    30  29  96 NW20G29   30.19R
LIVINGSTON     CLOUDY    28  23  81 W15       30.38S

CENTRAL MONTANA


CITY           SKY/WX    TMP DP  RH WIND       PRES   REMARKS
HAVRE          CLOUDY    20  18  92 SW7       30.35R
LEWISTOWN      CLOUDY    28  23  81 SW8       30.32F
GREAT FALLS    CLOUDY    26  21  81 SW13      30.35S
CUT BANK       CLEAR     21  16  81 CALM      30.31F
HELENA         FOG       16  15  96 W5        30.46R VSB 3/4
BUTTE          CLOUDY    23  19  85 VRB3      30.43S
BOZEMAN        FOG       23  21  92 CALM      30.46R VSB<1/4

WESTERN MONTANA


CITY           SKY/WX    TMP DP  RH WIND       PRES   REMARKS
MISSOULA       CLOUDY    27  25  92 CALM      30.51F
KALISPELL      NOT AVBL

NORTH DAKOTA


CITY           SKY/WX    TMP DP  RH WIND       PRES   REMARKS
WILLISTON      CLOUDY    31  25  78 N10       30.19S
DICKINSON      LGT SNOW  31  27  85 NW18G29   30.11R FOG
MINOT          CLOUDY    31  24  75 NW13      30.09R
BISMARCK       CLOUDY    33  28  81 N15G28    30.08R

SOUTHERN SASKATCHEWAN


CITY           SKY/WX    TMP DP  RH WIND       PRES   REMARKS
REGINA         MOCLDY    28  25  86 W10       30.14F
MOOSE JAW      PTCLDY    25  25 100 W13       30.19S
ESTEVAN        MOCLDY    27  23  86 NW12      30.14S
SWIFT CURRENT  CLEAR     21  19  93 W12G17    30.21R




USA.gov is the U.S. government's official web portal to all federal, state and local government web resources and services.